When you browse on this site, cookies collect data to enhance your experience and personalize the content and advertising you see.
Visit our Privacy Policy to learn more. By continuing to use the site, you agree to this use of cookies and data.
  • Em Portugal
  • Lista de países
  • Para 7 dias
  • Temperatura da água
  • Mapas de satélite
  • Mapa do tempo
  • Widgets de tempo
  • user-avatar
    Iniciar Sessão

    Previsão horária em Suszki

    Hoje, 21 Março, Quinta-feira

    Tempo Temperatura Precipitação Vento Pressão Humidade
    00:00 +3°C° 0 mm 3 m/s 755 mmHg 63%
    01:00 +3°C° 0 mm 3 m/s 755 mmHg 63%
    02:00 +3°C° 0 mm 3 m/s 755 mmHg 64%
    03:00 +3°C° 0 mm 3 m/s 755 mmHg 65%
    04:00 +3°C° 0 mm 3 m/s 755 mmHg 66%
    05:00 +3°C° 0 mm 3 m/s 755 mmHg 68%
    06:00 +3°C° 0 mm 3 m/s 755 mmHg 69%
    07:00 +3°C° 0 mm 3 m/s 755 mmHg 70%
    08:00 +5°C° 0 mm 3 m/s 755 mmHg 68%
    09:00 +8°C° 0 mm 3 m/s 755 mmHg 66%
    10:00 +10°C° 0 mm 3 m/s 756 mmHg 64%
    11:00 +11°C° 0 mm 3 m/s 755 mmHg 62%
    12:00 +12°C° 0 mm 3 m/s 755 mmHg 60%
    13:00 +13°C° 0 mm 3 m/s 755 mmHg 59%
    14:00 +14°C° 0 mm 3 m/s 755 mmHg 59%
    15:00 +14°C° 0 mm 3 m/s 755 mmHg 59%
    16:00 +14°C° 0 mm 3 m/s 754 mmHg 59%
    17:00 +13°C° 0 mm 2 m/s 754 mmHg 66%
    18:00 +12°C° 0 mm 2 m/s 754 mmHg 73%
    19:00 +10°C° 0 mm 1 m/s 754 mmHg 80%
    20:00 +10°C° 0 mm 1 m/s 754 mmHg 83%
    21:00 +10°C° 0 mm 1 m/s 754 mmHg 85%
    22:00 +9°C° 0 mm 1 m/s 754 mmHg 88%
    23:00 +9°C° 0 mm 1 m/s 754 mmHg 88%

    Amanhã, 22 Março, Sexta-feira

    Tempo Temperatura Precipitação Vento Pressão Humidade
    00:00 +9°C° 0 mm 1 m/s 754 mmHg 89%
    01:00 +8°C° 0 mm 1 m/s 754 mmHg 90%
    02:00 +8°C° 0 mm 1 m/s 754 mmHg 90%
    03:00 +8°C° 0 mm 1 m/s 754 mmHg 90%
    04:00 +8°C° 0 mm 1 m/s 754 mmHg 90%
    05:00 +8°C° 0 mm 1 m/s 754 mmHg 90%
    06:00 +8°C° 0 mm 1 m/s 754 mmHg 89%
    07:00 +8°C° 0 mm 1 m/s 754 mmHg 88%
    08:00 +11°C° 0 mm 1 m/s 754 mmHg 80%
    09:00 +13°C° 0 mm 1 m/s 754 mmHg 73%
    10:00 +15°C° 0 mm 1 m/s 754 mmHg 65%
    11:00 +16°C° 0 mm 1 m/s 754 mmHg 61%
    12:00 +18°C° 0 mm 1 m/s 754 mmHg 57%
    13:00 +19°C° 0 mm 1 m/s 754 mmHg 54%
    14:00 +19°C° 0 mm 1 m/s 753 mmHg 53%
    15:00 +19°C° 0 mm 1 m/s 753 mmHg 53%
    16:00 +19°C° 0 mm 1 m/s 752 mmHg 53%
    17:00 +16°C° 0 mm 1 m/s 752 mmHg 59%
    18:00 +15°C° 0 mm 1 m/s 752 mmHg 65%
    19:00 +13°C° 0 mm 2 m/s 752 mmHg 72%
    20:00 +13°C° 0 mm 2 m/s 752 mmHg 74%
    21:00 +12°C° 0 mm 2 m/s 752 mmHg 77%
    22:00 +10°C° 0 mm 2 m/s 752 mmHg 79%
    23:00 +10°C° 0 mm 2 m/s 751 mmHg 79%

    Depois de amanhã, 23 Março, Sábado

    Tempo Temperatura Precipitação Vento Pressão Humidade
    00:00 +11°C° 0 mm 1 m/s 751 mmHg 80%
    01:00 +10°C° 0 mm 1 m/s 751 mmHg 80%
    02:00 +9°C° 0 mm 2 m/s 751 mmHg 80%
    03:00 +9°C° 0 mm 2 m/s 750 mmHg 81%
    04:00 +9°C° 0 mm 2 m/s 750 mmHg 81%
    05:00 +9°C° 0 mm 2 m/s 750 mmHg 81%
    06:00 +9°C° 0 mm 2 m/s 750 mmHg 80%
    07:00 +9°C° 0 mm 2 m/s 750 mmHg 79%
    08:00 +13°C° 0 mm 2 m/s 750 mmHg 71%
    09:00 +15°C° 0 mm 2 m/s 750 mmHg 63%
    10:00 +17°C° 0 mm 2 m/s 750 mmHg 54%
    11:00 +18°C° 0 mm 2 m/s 750 mmHg 51%
    12:00 +19°C° 0 mm 2 m/s 749 mmHg 48%
    13:00 +19°C° 0 mm 3 m/s 749 mmHg 45%
    14:00 +19°C° 0 mm 3 m/s 749 mmHg 45%
    15:00 +19°C° 0 mm 3 m/s 748 mmHg 46%
    16:00 +19°C° 0 mm 3 m/s 748 mmHg 47%
    17:00 +17°C° 0 mm 2 m/s 748 mmHg 54%
    18:00 +16°C° 0 mm 2 m/s 749 mmHg 61%
    19:00 +14°C° 0 mm 2 m/s 749 mmHg 68%
    20:00 +13°C° 0 mm 2 m/s 749 mmHg 74%
    21:00 +12°C° 0 mm 2 m/s 750 mmHg 81%
    22:00 +10°C° 0 mm 3 m/s 750 mmHg 87%
    23:00 +10°C° 0 mm 3 m/s 750 mmHg 86%

    24 Março, Domingo

    Tempo Temperatura Precipitação Vento Pressão Humidade
    00:00 +9°C° 0 mm 2 m/s 750 mmHg 86%
    01:00 +9°C° 0 mm 2 m/s 750 mmHg 86%
    02:00 +9°C° 0 mm 3 m/s 750 mmHg 84%
    03:00 +8°C° 0 mm 3 m/s 750 mmHg 83%
    04:00 +7°C° 0 mm 3 m/s 750 mmHg 81%
    05:00 +7°C° 0 mm 3 m/s 750 mmHg 80%
    06:00 +5°C° 0 mm 3 m/s 750 mmHg 79%
    07:00 +5°C° 0 mm 3 m/s 750 mmHg 78%
    08:00 +7°C° 0 mm 3 m/s 750 mmHg 72%
    09:00 +8°C° 0 mm 2 m/s 750 mmHg 67%
    10:00 +9°C° 0 mm 2 m/s 750 mmHg 62%
    11:00 +10°C° 0 mm 2 m/s 750 mmHg 59%
    12:00 +12°C° 0 mm 2 m/s 749 mmHg 57%
    13:00 +13°C° 0 mm 2 m/s 749 mmHg 54%
    14:00 +13°C° 0 mm 2 m/s 748 mmHg 54%
    15:00 +13°C° 0 mm 2 m/s 747 mmHg 55%
    16:00 +13°C° 0 mm 2 m/s 747 mmHg 55%
    17:00 +12°C° 0 mm 2 m/s 747 mmHg 60%
    18:00 +10°C° 0 mm 2 m/s 746 mmHg 64%
    19:00 +9°C° 0 mm 2 m/s 746 mmHg 69%
    20:00 +8°C° 0.1 mm 2 m/s 746 mmHg 71%
    21:00 +8°C° 0.1 mm 2 m/s 746 mmHg 73%
    22:00 +9°C° 0.1 mm 1 m/s 746 mmHg 75%
    23:00 +8°C° 0.8 mm 1 m/s 745 mmHg 78%

    25 Março, Segunda-feira

    Tempo Temperatura Precipitação Vento Pressão Humidade
    00:00 +8°C° 0.8 mm 1 m/s 745 mmHg 81%
    01:00 +6°C° 0.8 mm 0 m/s 745 mmHg 85%
    02:00 +7°C° 0 mm 1 m/s 745 mmHg 86%
    03:00 +6°C° 0 mm 1 m/s 744 mmHg 87%
    04:00 +5°C° 0 mm 2 m/s 744 mmHg 88%
    05:00 +5°C° 0 mm 2 m/s 744 mmHg 84%
    06:00 +4°C° 0 mm 3 m/s 745 mmHg 80%
    07:00 +4°C° 0 mm 3 m/s 745 mmHg 76%
    08:00 +4°C° 0.1 mm 4 m/s 745 mmHg 76%
    09:00 +5°C° 0.1 mm 4 m/s 745 mmHg 76%
    10:00 +6°C° 0.1 mm 5 m/s 745 mmHg 76%
    11:00 +7°C° 0 mm 6 m/s 745 mmHg 66%
    12:00 +7°C° 0 mm 6 m/s 744 mmHg 56%
    13:00 +8°C° 0 mm 7 m/s 744 mmHg 46%
    14:00 +8°C° 0.1 mm 7 m/s 743 mmHg 52%
    15:00 +6°C° 0.1 mm 8 m/s 743 mmHg 57%
    16:00 +5°C° 0.1 mm 8 m/s 742 mmHg 63%
    17:00 +5°C° 0.2 mm 8 m/s 742 mmHg 65%
    18:00 +4°C° 0.2 mm 7 m/s 742 mmHg 66%
    19:00 +3°C° 0.2 mm 7 m/s 742 mmHg 68%
    20:00 +2°C° 0.2 mm 7 m/s 743 mmHg 70%
    21:00 +2°C° 0.2 mm 7 m/s 743 mmHg 71%
    22:00 +1°C° 0.2 mm 6 m/s 743 mmHg 73%
    23:00 0°C° 0.1 mm 7 m/s 743 mmHg 73%

    26 Março, Terça-feira

    Tempo Temperatura Precipitação Vento Pressão Humidade
    00:00 0°C° 0.1 mm 8 m/s 743 mmHg 74%
    01:00 0°C° 0.1 mm 9 m/s 743 mmHg 74%
    02:00 -1°C° 0.1 mm 9 m/s 742 mmHg 74%
    03:00 -1°C° 0.1 mm 9 m/s 742 mmHg 73%
    04:00 -3°C° 0.1 mm 9 m/s 742 mmHg 72%
    05:00 -3°C° 0 mm 9 m/s 742 mmHg 70%
    06:00 -3°C° 0 mm 9 m/s 742 mmHg 68%
    07:00 -3°C° 0 mm 9 m/s 743 mmHg 66%
    08:00 -3°C° 0.3 mm 9 m/s 743 mmHg 63%
    09:00 -2°C° 0.3 mm 10 m/s 744 mmHg 59%
    10:00 -2°C° 0.3 mm 10 m/s 744 mmHg 56%
    11:00 -2°C° 0.1 mm 10 m/s 745 mmHg 53%
    12:00 0°C° 0.1 mm 9 m/s 745 mmHg 50%
    13:00 +1°C° 0.1 mm 9 m/s 745 mmHg 48%
    14:00 +1°C° 0 mm 8 m/s 746 mmHg 48%
    15:00 +1°C° 0 mm 8 m/s 746 mmHg 49%
    16:00 0°C° 0 mm 8 m/s 747 mmHg 49%
    17:00 +1°C° 0 mm 6 m/s 747 mmHg 53%
    18:00 0°C° 0 mm 5 m/s 748 mmHg 56%
    19:00 0°C° 0 mm 4 m/s 749 mmHg 60%
    20:00 -1°C° 0 mm 4 m/s 749 mmHg 62%
    21:00 -2°C° 0 mm 4 m/s 750 mmHg 65%
    22:00 -3°C° 0 mm 4 m/s 750 mmHg 67%
    23:00 -3°C° 0 mm 4 m/s 750 mmHg 69%
    Mostrar mais